This is the latest recevied weather packets stored in our database for station/object KQ4PPF. If no packets are shown the sender has not sent any weather packets the latest 10 day(s).
| Time | Temp. | Humidity | Pressure | Rain* | Wind** | Luminosity | Snow |
|---|---|---|---|---|---|---|---|
| 1778027300 | 21.11° C | 55% | 1010.8 hPa | 0 mm | - | 0 W/m² | - |
| 1778026996 | 21.11° C | 58% | 1010.9 hPa | 0 mm | - | 0 W/m² | - |
| 1778026692 | 20.56° C | 60% | 1010.9 hPa | 0 mm | - | 0 W/m² | - |
| 1778026390 | 20.56° C | 59% | 1010.8 hPa | 0 mm | - | 2 W/m² | - |
| 1778026086 | 20.56° C | 59% | 1010.8 hPa | 0 mm | - | 2 W/m² | - |
| 1778025784 | 20° C | 60% | 1010.8 hPa | 0 mm | - | 4 W/m² | - |
| 1778025480 | 20° C | 64% | 1010.5 hPa | 0 mm | - | 7 W/m² | - |
| 1778025178 | 20.56° C | 65% | 1010.6 hPa | 0 mm | - | 9 W/m² | - |
| 1778024875 | 20.56° C | 60% | 1010.9 hPa | 0 mm | - | 11 W/m² | - |
| 1778024573 | 20.56° C | 62% | 1010.9 hPa | 0 mm | - | 12 W/m² | - |
| 1778024269 | 20.56° C | 64% | 1010.8 hPa | 0 mm | - | 13 W/m² | - |
| 1778023967 | 20.56° C | 65% | 1010.7 hPa | 0 mm | - | 20 W/m² | - |
| 1778023664 | 20.56° C | 66% | 1010.7 hPa | 0 mm | - | 31 W/m² | - |
| 1778023361 | 20.56° C | 64% | 1010.8 hPa | 0 mm | - | 31 W/m² | - |
| 1778023058 | 21.11° C | 64% | 1010.8 hPa | 0 mm | - | 29 W/m² | - |
| 1778022757 | 21.11° C | 59% | 1010.8 hPa | 0 mm | - | 33 W/m² | - |
| 1778022455 | 21.67° C | 56% | 1010.6 hPa | 0 mm | - | 31 W/m² | - |
| 1778022151 | 21.11° C | 57% | 1010.6 hPa | 0 mm | - | 36 W/m² | - |
| 1778021848 | 21.11° C | 56% | 1010.5 hPa | 0 mm | - | 41 W/m² | - |
| 1778021545 | 21.11° C | 58% | 1010.7 hPa | 0 mm | - | 26 W/m² | - |
| 1778021240 | 21.11° C | 57% | 1011 hPa | 0 mm | - | 30 W/m² | - |
| 1778020938 | 21.11° C | 56% | 1010.9 hPa | 0 mm | - | 21 W/m² | - |
| 1778020635 | 21.11° C | 56% | 1010.9 hPa | 0 mm | - | 17 W/m² | - |
| 1778020331 | 21.11° C | 56% | 1010.9 hPa | 0 mm | - | 18 W/m² | - |
| 1778020027 | 21.67° C | 55% | 1010.8 hPa | 0 mm | - | 22 W/m² | - |
* Rain latest hour (hover to see other rain measurements)
** Current wind speed in m/s (hover to see current wind gust speed)